[[{"header":{"parameterUnit":"m.s-1","parameterCategory":1,"la1":30.2991,"la2":30.254,"lo1":-89.0895,"lo2":-89.0444,"dy":0.0017,"dx":0.0017,"nx":28,"ny":28,"refTime":"2024-12-20T03:00:00:Z","depth":0,"parameterNumber":2,"parameterNumberName":"U-component_of_WINDS"},"data":[0,0,0,0,0,0,0,0,0,0,0,0,0,0,0,0,0,0,0,0,0,0,0,0,0,0,0,0,0,0,0,0,0,0,0,0,0,0,0,0,0,0,0,0,0,0,0,0,0,0,0,0,0,0,0,0,0,0,0.8821,0.8821,0,0.8833,0.8833,0.8833,0.885,0.8851,0.8851,0.8851,0.8861,0.8861,0.8861,0,0,0,0,0,0,0,0,0,0,0,0,0,0.8812,0.8812,0.8821,0.8821,0.8821,0.8833,0.8833,0.8833,0.885,0.8851,0.8851,0.8851,0.8861,0.8861,0.8861,0,0,0,0,0,0,0,0,0,0,0,0,0,0.8819,0.8812,0.8821,0.8831,0.8832,0.8833,0.8833,0.8833,0.885,0.8851,0.8851,0.8852,0.8861,0.8861,0.8861,0.8852,0,0,0.8861,0.8861,0,0,0,0,0,0,0,0,0.8819,0.8819,0.883,0.883,0.8832,0.8841,0.8834,0.8839,0.885,0.8843,0.8851,0.8852,0.8854,0.8854,0.8856,0.8852,0.8852,0.8861,0.8861,0.8861,0.8861,0,0,0,0,0,0,0,0.8818,0.8819,0.8825,0.883,0.8831,0.8835,0.8837,0.8835,0.8846,0.8844,0.8845,0.8847,0.8854,0.8856,0.8856,0.8853,0.8861,0.8861,0.8861,0.8861,0.8843,0.8843,0,0,0,0,0,0,0.8816,0.8819,0.8825,0.8826,0.8826,0.8835,0.8836,0.8837,0.8846,0.8848,0.8846,0.8847,0.8855,0.8856,0.8856,0.8846,0.8861,0.8861,0.8861,0.8844,0.8843,0.8843,0,0,0,0,0,0,0.8816,0.8817,0.8825,0.8823,0.8824,0.8834,0.8835,0.8837,0.8838,0.8848,0.8849,0.8845,0.8856,0.8856,0.8853,0.8847,0.8861,0.8861,0.8844,0.8843,0.8843,0.8825,0,0,0,0,0,0,0.8816,0.8817,0.8813,0.8822,0.8824,0.8821,0.8835,0.8837,0.8838,0.884,0.8847,0.8849,0.8856,0.8853,0.8853,0.8847,0.8861,0.8845,0.8844,0.8843,0.8827,0.8824,0.8822,0,0,0,0,0,0.8816,0.8807,0.8813,0.8814,0.882,0.8821,0.8822,0.8831,0.8838,0.8834,0.8841,0.8848,0.8848,0.8853,0.8853,0.8846,0.8845,0.8844,0.8843,0.8828,0.8825,0.8822,0,0,0,0,0,0,0.8795,0.8808,0.8815,0.8809,0.8814,0.8824,0.8819,0.8828,0.883,0.8831,0.8842,0.8843,0.8839,0.8843,0.8848,0.8838,0.8848,0.8847,0.8836,0.8833,0.8831,0.883,0.8861,0,0,0,0,0,0.8791,0.8791,0.8802,0.8796,0.8798,0.8809,0.8809,0.8816,0.8821,0.8823,0.8829,0.8833,0.8834,0.8834,0.8835,0.8828,0.883,0.8824,0.8822,0.882,0.8818,0.8816,0.8813,0.8839,0.8839,0.8839,0,0,0.878,0.8787,0.8786,0.8792,0.8797,0.8796,0.881,0.8809,0.8809,0.8823,0.882,0.8825,0.883,0.8825,0.8823,0.8828,0.8812,0.8819,0.8817,0.8817,0.8814,0.8812,0.881,0.8839,0.8839,0.8839,0,0,0.8761,0.8766,0.8762,0.8767,0.8774,0.8781,0.8781,0.879,0.8794,0.8792,0.8802,0.8803,0.8803,0.8807,0.8809,0.8794,0.8801,0.8794,0.8782,0.8779,0.8777,0.8775,0.8769,0.8767,0.8793,0.8792,0.8792,0,0.8746,0.8747,0.8759,0.8757,0.876,0.8774,0.877,0.8774,0.8781,0.8782,0.8788,0.879,0.8795,0.8791,0.8788,0.8789,0.8788,0.8792,0.8776,0.8775,0.8773,0.8768,0.8766,0.8792,0.8792,0.8792,0.8792,0,0.8729,0.8729,0.8725,0.8733,0.8735,0.8732,0.8743,0.8744,0.8752,0.8759,0.8757,0.8763,0.8766,0.8766,0.8773,0.8764,0.8767,0.8774,0.8784,0.8769,0.8765,0.8763,0.879,0.8791,0.8791,0.8791,0,0,0.8695,0.8711,0.8709,0.8713,0.8723,0.8723,0.8722,0.8726,0.8727,0.8732,0.873,0.8732,0.874,0.8742,0.875,0.8747,0.8735,0.8755,0.8755,0.8751,0.8726,0.8719,0.8717,0.8741,0.874,0.874,0.8725,0,0.8677,0.8675,0.8687,0.8682,0.8683,0.8698,0.8697,0.8703,0.8709,0.8711,0.8718,0.8719,0.8729,0.8731,0.8729,0.8737,0.873,0.8738,0.8739,0.8739,0.8736,0.8714,0.8707,0.8693,0.8723,0.8723,0.8723,0,0.8655,0.866,0.8656,0.8667,0.8668,0.8667,0.8672,0.8674,0.8681,0.8686,0.869,0.87,0.8699,0.8709,0.8708,0.8714,0.8715,0.8719,0.8719,0.8718,0.8729,0.8712,0.8688,0.8686,0.872,0.872,0.872,0,0.8631,0.8636,0.8635,0.8638,0.8651,0.865,0.8656,0.8664,0.8666,0.8671,0.8673,0.8677,0.8679,0.8683,0.8693,0.87,0.8691,0.8702,0.8695,0.8695,0.8692,0.8692,0.8666,0.8694,0.8694,0.8694,0.8694,0,0.8609,0.8605,0.8624,0.8623,0.862,0.8634,0.863,0.8637,0.8645,0.8645,0.8658,0.8658,0.8673,0.8675,0.8683,0.8681,0.8682,0.8686,0.8688,0.8685,0.8684,0.8685,0.8686,0.8694,0.8694,0.8694,0.8694,0,0.858,0.8592,0.8591,0.8605,0.8609,0.8606,0.8617,0.8617,0.8626,0.8626,0.8627,0.864,0.8643,0.8655,0.866,0.8666,0.8661,0.8666,0.8659,0.866,0.8652,0.8653,0.8626,0.8623,0.8653,0.8653,0.8653,0,0.8564,0.8562,0.8576,0.8578,0.8583,0.8586,0.8589,0.8603,0.8606,0.8615,0.8614,0.8618,0.8622,0.8626,0.8636,0.8641,0.8645,0.8636,0.8646,0.8642,0.8645,0.8644,0.8644,0.8633,0.8632,0.8632,0.8632,0,0.8535,0.8542,0.8546,0.8553,0.8556,0.8562,0.8568,0.8569,0.8585,0.8587,0.8591,0.8595,0.8601,0.8605,0.8612,0.8618,0.8627,0.8629,0.8628,0.8623,0.8619,0.8621,0.8652,0.8629,0.8629,0.863,0.863,0.863,0.8512,0.8512,0.8522,0.8526,0.8533,0.8539,0.854,0.855,0.8553,0.856,0.8569,0.8572,0.8581,0.8591,0.8596,0.8599,0.8604,0.8602,0.8601,0.86,0.8598,0.862,0.86,0.86,0.86,0.86,0.86,0,0.8484,0.8492,0.8496,0.8505,0.8509,0.852,0.8528,0.853,0.8533,0.8541,0.8545,0.855,0.8555,0.8566,0.8572,0.8572,0.8577,0.8573,0.8572,0.8574,0.8593,0.8594,0.8569,0.8569,0.8569,0.8569,0.8569,0.8569,0.8469,0.8469,0.8477,0.8481,0.8489,0.8492,0.8496,0.8502,0.8509,0.8514,0.8518,0.8526,0.8536,0.8543,0.8548,0.8551,0.8552,0.8547,0.8551,0.8569,0.8572,0.8575,0.8575,0.8547,0.8547,0.8532,0.8531,0.8531]},{"header":{"parameterUnit":"m.s-1","parameterCategory":1,"la1":30.2991,"la2":30.254,"lo1":-89.0895,"lo2":-89.0444,"dy":0.0017,"dx":0.0017,"nx":28,"ny":28,"refTime":"2024-12-20T03:00:00:Z","depth":0,"parameterNumber":3,"parameterNumberName":"V-component_of_WINDS"},"data":[0,0,0,0,0,0,0,0,0,0,0,0,0,0,0,0,0,0,0,0,0,0,0,0,0,0,0,0,0,0,0,0,0,0,0,0,0,0,0,0,0,0,0,0,0,0,0,0,0,0,0,0,0,0,0,0,0,0,-8.2744,-8.2746,0,-8.2879,-8.288,-8.2882,-8.2774,-8.2769,-8.2764,-8.276,-8.2891,-8.2899,-8.2907,0,0,0,0,0,0,0,0,0,0,0,0,0,-8.2388,-8.2396,-8.2744,-8.2746,-8.2747,-8.2878,-8.288,-8.2882,-8.2774,-8.2769,-8.2763,-8.2758,-8.2889,-8.2898,-8.2907,0,0,0,0,0,0,0,0,0,0,0,0,0,-8.2535,-8.2398,-8.2744,-8.271,-8.2708,-8.2878,-8.288,-8.2882,-8.2776,-8.2769,-8.2762,-8.2755,-8.2886,-8.2897,-8.2909,-8.3117,0,0,-8.2944,-8.2949,0,0,0,0,0,0,0,0,-8.2527,-8.2548,-8.2713,-8.2712,-8.2711,-8.2802,-8.2803,-8.2961,-8.2777,-8.275,-8.276,-8.2752,-8.2867,-8.288,-8.292,-8.3123,-8.3129,-8.2945,-8.2952,-8.2957,-8.296,0,0,0,0,0,0,0,-8.2517,-8.2541,-8.2797,-8.2715,-8.2714,-8.2686,-8.2699,-8.2832,-8.2845,-8.2752,-8.2744,-8.2762,-8.2865,-8.2909,-8.2922,-8.3131,-8.2945,-8.2955,-8.2962,-8.2967,-8.3513,-8.352,0,0,0,0,0,0,-8.2511,-8.2534,-8.2793,-8.2801,-8.26,-8.2698,-8.2713,-8.278,-8.2843,-8.2846,-8.2768,-8.2756,-8.2892,-8.2908,-8.2926,-8.3175,-8.2957,-8.2968,-8.2975,-8.3505,-8.3515,-8.3523,0,0,0,0,0,0,-8.2503,-8.2535,-8.2787,-8.2666,-8.2696,-8.2711,-8.2788,-8.2786,-8.283,-8.2855,-8.2856,-8.2811,-8.2887,-8.291,-8.3071,-8.3178,-8.2973,-8.2984,-8.3496,-8.3508,-8.3519,-8.3675,0,0,0,0,0,0,-8.2494,-8.2533,-8.2614,-8.2668,-8.2703,-8.2932,-8.2794,-8.2794,-8.2851,-8.2838,-8.2896,-8.2899,-8.2884,-8.3054,-8.3083,-8.3191,-8.2993,-8.3487,-8.3502,-8.3515,-8.3661,-8.3691,-8.3716,0,0,0,0,0,-8.2481,-8.2651,-8.2618,-8.265,-8.2804,-8.2939,-8.2958,-8.2939,-8.286,-8.2941,-8.2957,-8.2897,-8.3162,-8.3072,-8.3103,-8.3216,-8.348,-8.3498,-8.3514,-8.3648,-8.3685,-8.3716,0,0,0,0,0,0,-8.2606,-8.2657,-8.2622,-8.2814,-8.2874,-8.292,-8.3021,-8.2978,-8.3059,-8.3043,-8.3014,-8.3028,-8.3198,-8.3223,-8.3121,-8.3421,-8.3308,-8.3332,-8.3399,-8.3434,-8.3462,-8.3452,-8.3002,0,0,0,0,0,-8.2656,-8.2763,-8.2801,-8.2967,-8.2999,-8.3006,-8.3063,-8.3044,-8.3103,-8.3127,-8.3155,-8.3213,-8.3309,-8.3373,-8.3462,-8.3663,-8.3674,-8.3756,-8.3784,-8.3807,-8.3828,-8.3936,-8.3973,-8.3578,-8.3578,-8.3578,0,0,-8.276,-8.2801,-8.287,-8.2993,-8.3037,-8.3147,-8.3027,-8.3148,-8.3229,-8.3144,-8.3299,-8.3322,-8.3384,-8.3567,-8.3649,-8.3593,-8.394,-8.3828,-8.3846,-8.3855,-8.3958,-8.3995,-8.4028,-8.359,-8.3588,-8.3586,0,0,-8.3006,-8.3049,-8.3192,-8.3239,-8.3307,-8.3311,-8.3345,-8.34,-8.3412,-8.3568,-8.3507,-8.3601,-8.3768,-8.3815,-8.3861,-8.4127,-8.4075,-8.4157,-8.4302,-8.4408,-8.4439,-8.4467,-8.4562,-8.4597,-8.4177,-8.4178,-8.4178,0,-8.3126,-8.3292,-8.3271,-8.3398,-8.3453,-8.3384,-8.3529,-8.3574,-8.3668,-8.3707,-8.3643,-8.3852,-8.3889,-8.4082,-8.4147,-8.4186,-8.4224,-8.415,-8.4437,-8.4464,-8.4489,-8.458,-8.4616,-8.4187,-8.4186,-8.4185,-8.4184,0,-8.3437,-8.3552,-8.366,-8.3755,-8.3822,-8.3957,-8.3955,-8.4026,-8.4001,-8.4011,-8.417,-8.4212,-8.431,-8.4354,-8.4329,-8.4544,-8.4507,-8.4441,-8.4327,-8.4537,-8.4622,-8.4656,-8.4201,-8.4198,-8.4195,-8.4193,0,0,-8.3764,-8.3848,-8.3888,-8.393,-8.4001,-8.4089,-8.422,-8.4319,-8.438,-8.4447,-8.4556,-8.4699,-8.4638,-8.4691,-8.4671,-8.4764,-8.4973,-8.4686,-8.4687,-8.4738,-8.5212,-8.5262,-8.5303,-8.4938,-8.4945,-8.495,-8.5207,0,-8.4014,-8.4246,-8.4232,-8.4449,-8.4555,-8.4492,-8.4606,-8.4661,-8.4674,-8.4764,-8.4776,-8.4879,-8.4791,-8.4823,-8.4912,-8.4929,-8.5067,-8.491,-8.5038,-8.5043,-8.5026,-8.5347,-8.54,-8.5641,-8.524,-8.5245,-8.5249,0,-8.4337,-8.4418,-8.4647,-8.4704,-8.4748,-8.4851,-8.494,-8.5028,-8.5089,-8.5091,-8.5151,-8.5116,-8.5247,-8.513,-8.5309,-8.5203,-8.5254,-8.527,-8.5279,-8.529,-8.516,-8.5368,-8.5717,-8.5753,-8.5301,-8.5297,-8.5293,0,-8.4555,-8.472,-8.4879,-8.4918,-8.4987,-8.5061,-8.5093,-8.5147,-8.5208,-8.5285,-8.5323,-8.5414,-8.5464,-8.5534,-8.5523,-8.5439,-8.5707,-8.5588,-8.5712,-8.5712,-8.5771,-8.5768,-8.6134,-8.5804,-8.5803,-8.5803,-8.5802,0,-8.4836,-8.4978,-8.4978,-8.5076,-8.5234,-8.5215,-8.537,-8.5393,-8.5442,-8.5542,-8.5491,-8.5585,-8.5566,-8.566,-8.5652,-8.5802,-8.5825,-8.5829,-8.5826,-8.5835,-8.5834,-8.5868,-8.5852,-8.5812,-8.581,-8.5808,-8.5807,0,-8.5105,-8.5111,-8.528,-8.5333,-8.5349,-8.5463,-8.5507,-8.5599,-8.5608,-8.5735,-8.5763,-8.5777,-8.5884,-8.5881,-8.6002,-8.5997,-8.6182,-8.6159,-8.6163,-8.6158,-8.6282,-8.6271,-8.6684,-8.6737,-8.6372,-8.6375,-8.6378,0,-8.5285,-8.5394,-8.5459,-8.5524,-8.5561,-8.5665,-8.5728,-8.5712,-8.5779,-8.5857,-8.5939,-8.6043,-8.6125,-8.6299,-8.6318,-8.6411,-8.6389,-8.6528,-8.6403,-8.6409,-8.6392,-8.6386,-8.6397,-8.6552,-8.6556,-8.656,-8.6562,0,-8.5603,-8.5601,-8.5694,-8.5789,-8.5865,-8.5938,-8.6005,-8.6061,-8.6053,-8.6129,-8.6241,-8.6305,-8.643,-8.6533,-8.6622,-8.6652,-8.6607,-8.6602,-8.6635,-8.6646,-8.6644,-8.6647,-8.623,-8.6592,-8.6589,-8.6587,-8.6586,-8.6584,-8.5833,-8.5928,-8.5989,-8.6094,-8.6144,-8.6208,-8.6298,-8.6319,-8.6412,-8.6515,-8.65,-8.6624,-8.6681,-8.6797,-8.6835,-8.6931,-8.6881,-8.693,-8.6942,-8.6955,-8.6969,-8.6629,-8.6946,-8.6946,-8.6945,-8.6944,-8.6943,0,-8.615,-8.6187,-8.6284,-8.6381,-8.6464,-8.6416,-8.6488,-8.656,-8.6671,-8.673,-8.6812,-8.694,-8.704,-8.7068,-8.7164,-8.7235,-8.7216,-8.7261,-8.7255,-8.7263,-8.7007,-8.6969,-8.7274,-8.7274,-8.7274,-8.7274,-8.7274,-8.7274,-8.6324,-8.6482,-8.6487,-8.6668,-8.6703,-8.6827,-8.6872,-8.693,-8.6978,-8.7124,-8.7208,-8.7226,-8.7272,-8.7371,-8.746,-8.7466,-8.7503,-8.7557,-8.7554,-8.7314,-8.7281,-8.7249,-8.7213,-8.7565,-8.7565,-8.7802,-8.7804,-8.7806]}]]